SNAPSHOT-1

operational
NORAD ID: 1314 Int'l Des: 1965-027 Owner: AFSSD/AEC Country: US
LEOCIRCULARRETROGRADE

Über SNAPSHOT-1

Beschreibung wird geladen...

Live-Position

3D-Globus wird geladen...

Nächste Überflüge

Höhenverlauf

Altitude vs Time

uPlot chart will show altitude changes over time

Zweizeiliger Elementsatz

1 1314U 65027A 26062.37467058 .00000033 00000-0 94479-4 0 9998
2 1314 90.2453 3.9177 0029495 203.9975 274.7868 12.91803244617364
Epoch: 3. März 2026 • Age: 35 hours

Aktueller Status

Höhe 1319.9 km
Geschwindigkeit 7.19 km/s
Subsatellitenpunkt 24.04°N, 43.72°E
Typ other

Große Konstellationen

Loading constellations...